Flag for Micronesia Weather past 2 weeks in Weno, Truk, Micronesia

Now
80 °F

Mostly cloudy.


Feels Like: 87 °F
Forecast: 81 / 87 °F
Wind: 9 mph from Southwest

Location: Truk Intl / Moen Island

Current Time: Aug 1, 2015 at 10:27:25 PM

Latest Report: Aug 1, 2015 at 9:50 PM


Visibility: 15 mi

Pressure: 29.79 "Hg

Humidity: 91%

Dew point: 77 °F

Location of WenoLocation

Historic Weather in Weno — Graph

°F

Weno temperature yesterday

Maximum temperature yesterday: 85 °F (at 11:50 AM)
Minimum temperature yesterday: 80 °F (at 1:51 AM)
Average temperature yesterday: 82 °F

Past Weeks' High & Low Weather Summary

 TemperatureHumidityPressure
High89 °F (Jul 25, 11:51 AM)95% (Jul 20, 5:50 AM)29.93 "Hg (Jul 20, 5:50 AM)
Low76 °F (Jul 22, 4:51 AM)68% (Jul 22, 3:50 PM)29.70 "Hg (Aug 1, 3:50 PM)
Average83 °F83%29.84 "Hg
* Reported Jul 17 8:50 PM — Aug 1 8:50 PM, Weno, Weather by CustomWeather, © 2015

Note: Actual official high and low records may vary slightly from our data, if they occured in-between our weather recording intervals... More about our weather records

Advertising

Weno weather history for previous 24 hours

 ConditionsComfort  
Time TempWeatherWind HumidityBarometerVisibility
8:50 PM
Sat, Aug 1
82 °FMostly cloudy.12 mph82%29.78 "Hg15 mi
7:50 PM82 °FMostly cloudy.13 mph83%29.78 "Hg15 mi
6:53 PM82 °FMostly cloudy.9 mph83%29.74 "Hg15 mi
5:51 PM82 °FMore clouds than sun.12 mph80%29.74 "Hg15 mi
4:53 PM83 °FMore clouds than sun.9 mph80%29.71 "Hg15 mi
3:50 PM83 °FMore clouds than sun.14 mph80%29.70 "Hg15 mi
2:51 PM84 °FMore clouds than sun.12 mph80%29.70 "Hg15 mi
1:51 PM83 °FBroken clouds.9 mph84%29.72 "Hg15 mi
12:55 PM82 °FSprinkles. More clouds than sun.13 mph86%29.76 "Hg14 mi
11:52 AM86 °FMostly cloudy.9 mph79%29.77 "Hg15 mi
10:55 AM86 °FMostly cloudy.12 mph78%29.78 "Hg15 mi
9:53 AM83 °FMostly cloudy.13 mph81%29.79 "Hg15 mi
8:52 AM81 °FMore clouds than sun.9 mph88%29.79 "Hg15 mi
7:58 AM82 °FMore clouds than sun.9 mph85%29.78 "Hg15 mi
6:58 AM82 °FMore clouds than sun.8 mph85%29.76 "Hg15 mi
5:52 AM81 °FLight rain. Partly sunny.13 mph87%29.75 "Hg14 mi
4:53 AM80 °FSprinkles. Mostly cloudy.9 mph92%29.75 "Hg14 mi
3:50 AM82 °FMostly cloudy.14 mph82%29.74 "Hg15 mi
2:50 AM80 °FSprinkles. Mostly cloudy.14 mph89%29.74 "Hg14 mi
1:50 AM82 °FMostly cloudy.13 mph85%29.75 "Hg15 mi
12:50 AM83 °FMostly cloudy.13 mph84%29.76 "Hg15 mi
11:50 PM
Fri, Jul 31
83 °FMostly cloudy.12 mph83%29.78 "Hg15 mi
10:50 PM83 °FMostly cloudy.15 mph81%29.79 "Hg15 mi
Weather by CustomWeather, © 2015

See weather overviewHow to use our weather pages